Regional Weather Roundup
Issued by NWS Newport/Morehead, NC

Current Version | Previous Version | Text Only | Print | Product List | Glossary Off
Versions: 1 2 3 4 5 6 7 8 9 10 11 12 13 14 15 16 17 18 19 20 21 22 23 24 25 26 27 28 29 30 31 32 33 34 35 36 37 38 39 40 41 42 43 44 45 46 47 48 49 50
099 ASUS42 KMHX 230313 RWRMHX WEATHER ROUNDUP FOR EASTERN NORTH CAROLINA NATIONAL WEATHER SERVICE NEWPORT/MOREHEAD CITY NC 1000 PM EST THU FEB 22 2018 NOTE: "FAIR" INDICATES FEW OR NO CLOUDS BELOW 12,000 FEET WITH NO SIGNIFICANT WEATHER AND/OR OBSTRUCTIONS TO VISIBILITY NCZ015>017-031-032-045>047-102-103-230400- NORTH COAST CITY SKY/WX TMP DP RH WIND PRES REMARKS EDENTON FAIR 62 60 91 CALM 30.46R ELIZABETH CITY CLOUDY 50 50 100 NE18G28 30.50R FOG KITTY HAWK MOCLDY 56 56 98 N10G17 30.47R MANTEO FAIR 61 59 94 CALM 30.46S $$ NCZ045>047-081-094-103-104-230400- CENTRAL COAST CITY SKY/WX TMP DP RH WIND PRES REMARKS FRISCO FAIR 64 63 96 SW3 30.47R $$ NCZ095-097-098-100-101-230400- SOUTHERN COAST CITY SKY/WX TMP DP RH WIND PRES REMARKS BEAUFORT FAIR 65 63 93 S7 30.46R CEDAR ISLAND NOT AVBL JACKSONVILLE FAIR 64 61 90 S3 30.45 PINEY ISLAND NOT AVBL WILMINGTON FAIR 64 62 93 CALM 30.45S $$ NCZ011>013-027>030-043-044-078>080-089-090>093-098-230400- COASTAL PLAIN CITY SKY/WX TMP DP RH WIND PRES REMARKS AHOSKIE CLOUDY 62 60 93 NE12 30.47R CLINTON FAIR 64 62 93 CALM 30.45S ELIZABETHTOWN NOT AVBL GOLDSBORO FAIR 67 60 80 S5 30.42R GREENVILLE FAIR 63 61 94 CALM 30.45R HAVELOCK CLEAR 63 62 97 S3 30.46S KENANSVILLE FAIR 64 59 82 CALM 30.45S KINSTON FAIR 65 60 84 S6 30.45R NEW BERN FAIR 62 59 90 SW7 30.46R RICHLANDS FAIR 62 60 93 S5 30.46R ROCKY MOUNT FAIR 57 56 96 CALM 30.45R WASHINGTON MOCLDY 66 61 82 CALM 30.46R WHITEVILLE FAIR 64 60 87 CALM 30.44S $$ AMZ130-135-150-152-154-156-158-170-250-252-270-ANZ085-086-088-633-658-670-230400- MARINE OBSERVATIONS STATION/POSITION TIME TEMP WIND PRES WAVE SWELL AIR SEA DIR/SP/G HT/PER HT/PER (UTC) (F) (DEG/KT/KT) (MB) (FT/S) (FT/S) CHESAPEAKE LIGHT NOT AVBL 64 E VA BEACH 0250 50 51 10/ 14/ 16 1032.0 3/15 3/15 DUCK 0242 45 360/ 19/ 22 1031.7 2 E DUCK 0300 47 N/A 3/13 2/13 OREGON INLET 0242 62 66 200/ 8/ 8 1031.4 13E OREGON INLT 0248 50 N/A 4/14 3/14 HATTERAS CG 0242 65 62 190/ 2/ 4 1031.4 DIAMOND BUOY 0250 73 76 200/ 12/ 14 1031.8 3/13 3/13 CAPE LOOKOUT 0300 170/ 7/ 7 1031.8 BEAUFORT LAB 0242 62 62 180/ 4/ 5 1031.5 30 SE NEW RVR IN NOT AVBL 30 SE NEW RVR IN 0300 70 N/A 4/ 9 2/15 27 SE WRIGHTSVLE 0208 70 69 180/ 8/ 10 1031.4 5 SE WRIGHTSVLE 0208 63 60 180/ 6/ 8 1030.8 225 S CAPE HAT 0250 72 74 130/ 6/ 8 1032.4 6/10 5/10 41 SE CHARLESTON 0250 70 69 50/ 2/ 4 1030.8 5/ 9 5/ 9 $$

USA.gov is the U.S. government's official web portal to all federal, state and local government web resources and services.